This is the latest recevied weather packets stored in our database for station/object LU8FCJ-5. If no packets are shown the sender has not sent any weather packets the latest 10 day(s).
| Time | Temp. | Humidity | Pressure | Rain* | Wind** | Luminosity | Snow |
|---|---|---|---|---|---|---|---|
| 1778210180 | 7.78° C | 81% | 1007.7 hPa | 0 mm | - | - | - |
| 1778209870 | 7.78° C | 81% | 1007.7 hPa | 0 mm | - | - | - |
| 1778209572 | 7.78° C | 80% | 1007.8 hPa | 0 mm | - | - | - |
| 1778209262 | 7.78° C | 81% | 1007.7 hPa | 0 mm | - | - | - |
| 1778208940 | 7.22° C | 82% | 1007.6 hPa | 0 mm | - | - | - |
| 1778208634 | 7.22° C | 82% | 1007.7 hPa | 0 mm | - | - | - |
| 1778208320 | 7.22° C | 83% | 1007.9 hPa | 0 mm | - | - | - |
| 1778208009 | 6.67° C | 85% | 1007.9 hPa | 0 mm | - | - | - |
| 1778207699 | 6.67° C | 84% | 1007.8 hPa | 0 mm | - | - | - |
| 1778207389 | 6.67° C | 85% | 1007.9 hPa | 0 mm | - | - | - |
| 1778207078 | 6.67° C | 85% | 1007.6 hPa | 0 mm | - | - | - |
| 1778206769 | 6.67° C | 85% | 1007.5 hPa | 0 mm | - | - | - |
| 1778206460 | 6.67° C | 86% | 1007.6 hPa | 0 mm | - | - | - |
| 1778206149 | 6.67° C | 85% | 1007.7 hPa | 0 mm | - | - | - |
| 1778205838 | 6.67° C | 84% | 1007.5 hPa | 0 mm | - | - | - |
| 1778205528 | 7.78° C | 84% | 1007.6 hPa | 0 mm | - | - | - |
| 1778205217 | 7.22° C | 85% | 1007.4 hPa | 0 mm | - | - | - |
| 1778204907 | 6.67° C | 86% | 1007.3 hPa | 0 mm | - | - | - |
| 1778204599 | 6.11° C | 87% | 1007.4 hPa | 0 mm | - | - | - |
| 1778203977 | 6.11° C | 86% | 1007.5 hPa | 0 mm | - | - | - |
| 1778203673 | 6.67° C | 85% | 1007.4 hPa | 0 mm | - | - | - |
| 1778203356 | 6.67° C | 84% | 1007.5 hPa | 0 mm | - | - | - |
| 1778203047 | 7.78° C | 84% | 1007.2 hPa | 0 mm | - | - | - |
| 1778202737 | 8.33° C | 83% | 1007.4 hPa | 0 mm | - | - | - |
| 1778202426 | 8.33° C | 82% | 1007.6 hPa | 0 mm | - | 116 W/m² | - |
* Rain latest hour (hover to see other rain measurements)
** Current wind speed in m/s (hover to see current wind gust speed)